Location: Allen Generating Plant
(35.0740°N, 90.1490°W)
Time: 13:44:55
(UTC+00:00)

SR - Visible Passes

Search period start: 09 November 2024 00:00
Search period end: 19 November 2024 00:00
Orbit: 575 x 857 km, 66.7° (Epoch: 08 November)

Date Brightness Start Highest point End Pass type
(mag) Time Alt. Az. Time Alt. Az. Time Alt. Az.
13 Nov ? 12:07:16 10° NNE 12:09:27 12° NE 12:11:40 10° ENE visible
15 Nov ? 12:01:08 10° N 12:04:58 20° NE 12:08:55 10° E visible
17 Nov ? 11:55:37 10° N 12:00:20 30° NE 12:05:16 10° ESE visible
18 Nov ? 11:03:33 10° NNE 11:06:39 15° NE 11:09:49 10° E visible
